Stations météo

Publicité
Greifswalder Oie, Allemagne (10097): Température de l'air & dewpoint: 04.12.2018 17:00:00 - 10.12.2018 17:00:00 (CET)Greifswalder Oie, Allemagne (10097): Température de l'air 5cm & Température de l'air -5cm: 04.12.2018 17:00:00 - 10.12.2018 17:00:00 (CET)Greifswalder Oie, Allemagne (10097): Température de l'air -20cm & Température de l'air -100cm: 04.12.2018 17:00:00 - 10.12.2018 17:00:00 (CET)Greifswalder Oie, Allemagne (10097): water temperature: 04.12.2018 17:00:00 - 10.12.2018 17:00:00 (CET)Greifswalder Oie, Allemagne (10097): Vitesse du vent & gusts: 04.12.2018 17:00:00 - 10.12.2018 17:00:00 (CET)Greifswalder Oie, Allemagne (10097): Direction du vent: 04.12.2018 17:00:00 - 10.12.2018 17:00:00 (CET)Greifswalder Oie, Allemagne (10097): reduced air pressure: 04.12.2018 17:00:00 - 10.12.2018 17:00:00 (CET)Greifswalder Oie, Allemagne (10097): visibility: 04.12.2018 17:00:00 - 10.12.2018 17:00:00 (CET)Greifswalder Oie, Allemagne (10097): Ensoleillement: 04.12.2018 17:00:00 - 10.12.2018 17:00:00 (CET)Greifswalder Oie, Allemagne (10097): Quantités de précipitations: 04.12.2018 17:00:00 - 10.12.2018 17:00:00 (CET)
Date & Time tt [°C] td [°C] tt 5cm [°C] tt -5cm [°C] tt -20cm [°C] tt -100cm [°C] tw [°C] ff [km/h] ff [knt] fx [km/h] fx [knt] dd ppp [hPa] vv [km] sd [min] rr [mm]
10.12.2018 17:00:00 4,9 2,2 4,5 4,0 5,2 7,8 5,1 33 18 56 30 W 1004,1 29 0 0,0
10.12.2018 16:00:00 5,4 1,9 5,0 4,1 5,2 7,8 5,1 46 25 67 36 W 1004,0 48 0 0,0
10.12.2018 15:00:00 5,6 2,2 5,1 4,3 5,2 7,8 5,1 41 22 62 34 W 1003,8 33 0 0,0
10.12.2018 14:00:00 5,7 2,0 5,3 4,6 5,2 7,8 5,0 45 24 65 35 W 1003,8 37 9 0,0
10.12.2018 13:00:00 5,8 2,0 6,2 4,9 5,2 7,8 4,9 50 27 69 38 W 1003,7 16 29 0,0
10.12.2018 12:00:00 5,5 2,1 5,1 4,5 5,2 7,8 4,9 49 27 79 43 W 1003,6 21 8 0,1
10.12.2018 11:00:00 4,9 2,8 4,2 4,3 5,2 7,8 4,8 40 21 73 39 WNW 1003,5 12 4 0,1
10.12.2018 10:00:00 5,6 1,9 5,2 4,2 5,2 7,8 4,7 53 29 68 37 W 1003,0 24 0 0,0
10.12.2018 09:00:00 5,6 1,8 5,2 4,2 5,2 7,8 4,6 53 29 64 35 W 1002,6 36 0 0,0
10.12.2018 08:00:00 5,6 2,0 5,2 4,1 5,2 7,7 4,7 46 25 59 32 W 1002,0 31 0 0,0
10.12.2018 07:00:00 5,5 1,6 4,9 3,9 5,3 7,7 4,7 40 22 61 33 WNW 1001,5 37 0 0,0
10.12.2018 06:00:00 5,3 1,2 4,8 3,8 5,4 7,7 4,7 52 28 76 41 NW 1000,7 45 0 0,0
10.12.2018 05:00:00 5,2 1,4 4,7 4,1 5,4 7,7 4,5 45 25 60 32 WNW 1000,3 42 0 0,1
10.12.2018 04:00:00 5,4 2,0 4,9 4,2 5,5 7,7 4,4 45 25 59 32 WNW 999,6 36 0 0,1
10.12.2018 03:00:00 5,5 3,4 4,8 4,2 5,6 7,7 4,4 40 22 53 28 WNW 999,0 43 0 0,0
10.12.2018 02:00:00 5,2 2,5 4,4 4,0 5,7 7,7 4,4 36 20 49 26 W 998,4 70 0 0,0
10.12.2018 01:00:00 5,0 1,6 4,4 4,1 5,8 7,7 4,4 43 23 57 31 WNW 997,9 70 0 0,0
10.12.2018 00:00:00 5,1 2,2 4,6 4,4 6,0 7,7 4,5 45 25 65 35 NW 996,9 57 0 0,0
09.12.2018 23:00:00 5,3 1,5 4,8 4,9 6,0 7,7 4,5 58 31 74 40 NW 995,2 70 0 0,0
09.12.2018 22:00:00 5,7 4,1 5,2 5,5 6,1 7,7 4,7 56 30 69 38 NW 993,6 65 0 0,1
09.12.2018 21:00:00 6,1 4,5 5,9 5,5 6,1 7,7 5,1 40 21 49 27 WNW 992,0 40 0 0,4
09.12.2018 20:00:00 6,0 4,3 5,6 5,5 6,1 7,7 4,8 34 19 43 23 W 990,9 39 0 0,0
09.12.2018 19:00:00 6,0 4,6 5,6 5,5 6,1 7,7 4,9 33 18 40 22 W 990,0 48 0 0,1
09.12.2018 18:00:00 5,9 4,9 5,5 5,7 6,2 7,7 4,8 38 20 49 27 WSW 989,5 10 0 0,5
09.12.2018 17:00:00 6,3 4,8 5,6 5,6 6,2 7,7 4,8 29 16 35 19 WSW 989,2 47 0 0,2
09.12.2018 16:00:00 5,8 4,7 5,3 5,6 6,2 7,7 4,8 26 14 31 17 WSW 988,8 67 0 0,0
09.12.2018 15:00:00 5,9 4,9 5,6 6,1 6,2 7,7 4,9 26 14 36 19 W 988,3 40 8 0,1
09.12.2018 14:00:00 6,0 4,7 6,1 6,4 6,1 7,7 4,9 32 17 45 24 WSW 987,5 47 6 0,0
09.12.2018 13:00:00 6,2 4,6 6,2 6,4 6,1 7,7 4,9 34 19 45 24 WSW 986,9 44 3 0,0
09.12.2018 12:00:00 6,2 4,5 6,3 6,0 6,0 7,7 4,9 37 20 43 23 WSW 986,9 45 0 0,0
09.12.2018 11:00:00 6,0 4,7 6,0 5,9 6,0 7,7 4,8 36 20 43 23 WSW 986,4 31 0 0,0
09.12.2018 10:00:00 5,8 4,9 5,8 5,6 5,9 7,7 4,8 28 15 35 19 WSW 985,9 24 0 0,0
09.12.2018 09:00:00 5,6 4,8 5,4 5,5 5,9 7,7 4,7 29 15 38 21 W 985,0 26 0 0,1
09.12.2018 08:00:00 5,7 5,1 5,5 5,5 5,9 7,7 4,7 32 17 40 22 W 984,0 9 0 0,3
09.12.2018 07:00:00 5,9 5,2 5,7 5,6 5,9 7,7 4,9 23 13 31 17 W 983,2 28 0 0,3
09.12.2018 06:00:00 6,1 5,6 5,9 5,6 5,9 7,7 4,7 16 8 19 11 WSW 982,9 3,1 0 2,2
09.12.2018 05:00:00 6,0 5,6 5,7 5,4 5,9 7,7 4,9 13 7 33 18 S 983,3 5 0 4,0
09.12.2018 04:00:00 5,5 5,1 5,3 5,3 5,9 7,7 4,8 13 7 27 14 SSE 984,4 7 0 3,7
09.12.2018 03:00:00 5,7 4,6 5,2 5,2 6,0 7,7 4,8 29 15 52 28 SSW 985,9 9 0 1,5
09.12.2018 02:00:00 6,5 3,4 6,1 5,1 6,0 7,7 4,7 37 20 50 27 SSW 986,8 38 0 0,0
09.12.2018 01:00:00 7,0 3,5 6,2 5,1 6,1 7,7 4,8 42 23 60 33 SW 988,0 43 0 0,0
09.12.2018 00:00:00 7,0 3,5 6,2 5,4 6,1 7,7 4,9 46 25 67 36 SW 988,8 49 0 0,0
08.12.2018 23:00:00 7,3 4,0 6,9 5,7 6,2 7,6 5,0 54 29 69 37 SW 989,6 56 0 0,0
08.12.2018 22:00:00 7,2 4,3 6,5 5,7 6,2 7,6 5,0 53 29 68 37 SW 989,8 57 0 0,0
08.12.2018 21:00:00 7,4 4,3 6,8 5,9 6,2 7,6 5,3 51 28 68 37 SW 990,2 66 0 0,0
08.12.2018 20:00:00 7,5 4,6 7,2 5,9 6,1 7,6 5,7 49 26 63 34 SW 990,5 62 0 0,0
08.12.2018 19:00:00 7,1 4,8 6,7 5,8 6,1 7,6 5,2 47 25 68 37 SW 990,8 49 0 0,0
08.12.2018 18:00:00 7,0 4,4 6,8 5,7 6,1 7,6 5,0 52 28 64 35 SW 991,3 70 0 0,0
08.12.2018 17:00:00 6,9 4,2 6,5 5,7 6,1 7,6 5,0 47 25 61 33 SW 991,9 67 0 0,0
08.12.2018 16:00:00 6,9 4,3 6,5 5,7 6,1 7,6 5,0 50 27 65 35 SSW 992,4 29 0 0,0
08.12.2018 15:00:00 6,6 4,3 6,3 5,7 6,1 7,6 5,0 50 27 67 36 SSW 992,8 49 0 0,0
08.12.2018 14:00:00 6,4 3,8 6,3 5,7 6,1 7,6 5,0 48 26 65 35 SSW 993,4 32 0 0,0
08.12.2018 13:00:00 6,4 3,3 6,2 5,6 6,1 7,6 4,9 50 27 68 37 SSW 993,9 39 0 0,0
08.12.2018 12:00:00 6,5 3,4 5,6 5,4 6,1 7,5 4,8 49 27 63 34 SW 994,4 27 0 0,0
08.12.2018 11:00:00 5,6 3,5 4,9 5,2 6,2 7,5 4,8 41 22 58 32 SSW 995,2 31 0 0,7
08.12.2018 10:00:00 6,1 2,9 5,8 5,1 6,3 7,5 4,7 41 22 55 30 SW 996,0 45 4 0,0
08.12.2018 09:00:00 5,9 2,6 5,1 4,7 6,4 7,5 4,7 44 24 56 31 SW 996,3 30 3 0,0
08.12.2018 08:00:00 5,7 3,1 4,7 5,0 6,6 7,5 4,8 42 23 55 30 SW 997,0 36 0 0,0
08.12.2018 07:00:00 6,1 3,1 5,7 5,5 6,7 7,5 5,0 47 26 61 33 WSW 996,3 35 0 0,0
08.12.2018 06:00:00 6,2 3,7 5,5 5,7 6,9 7,5 5,2 45 25 61 33 WSW 995,8 30 0 0,0
08.12.2018 05:00:00 6,4 4,4 5,8 6,0 7,0 7,5 5,2 47 25 57 31 WSW 995,1 38 0 0,0
08.12.2018 04:00:00 6,2 4,0 5,7 6,2 7,1 7,5 5,2 42 23 57 31 W 994,7 40 0 0,1
08.12.2018 03:00:00 6,6 4,1 6,1 6,5 7,3 7,5 5,2 49 27 70 38 W 993,6 40 0 0,5
08.12.2018 02:00:00 6,8 5,6 6,4 7,4 7,3 7,5 5,3 46 25 67 36 W 992,4 12 0 0,4
08.12.2018 01:00:00 8,6 7,6 8,0 7,7 7,3 7,5 5,3 35 19 42 23 SSW 991,4 36 0 0,2
08.12.2018 00:00:00 8,6 7,7 8,4 7,8 7,2 7,5 5,3 32 18 37 20 SSW 991,8 34 0 0,6
07.12.2018 23:00:00 8,4 8,0 8,2 7,8 7,2 7,4 5,3 29 16 35 19 SSW 992,4 8 0 0,5
07.12.2018 22:00:00 8,4 8,1 8,2 7,8 7,2 7,4 5,2 28 15 33 18 SSW 993,1 14 0 0,5
07.12.2018 21:00:00 8,4 8,2 8,3 7,9 7,1 7,4 5,3 25 14 32 17 SSW 994,0 4,2 0 0,2
07.12.2018 20:00:00 8,5 8,3 8,4 7,8 7,1 7,4 5,3 27 15 34 18 SSW 994,9 14 0 0,2
07.12.2018 19:00:00 8,3 8,1 8,3 7,8 7,0 7,4 5,3 29 16 33 18 SSW 996,1 2,9 0 0,0
07.12.2018 18:00:00 8,4 8,2 8,3 7,8 7,0 7,4 5,5 29 15 32 18 SSW 996,9 16 0 0,4
07.12.2018 17:00:00 8,5 8,3 8,4 7,8 6,9 7,4 5,5 28 15 33 18 SSW 998,0 6 0 1,0
07.12.2018 16:00:00 8,8 8,5 8,6 7,9 6,8 7,4 5,6 26 14 31 17 SSW 998,7 25 0 0,0
07.12.2018 15:00:00 8,6 8,4 8,5 8,1 6,7 7,4 5,5 27 14 29 16 SSW 999,8 15 0 0,4
07.12.2018 14:00:00 8,5 8,2 8,7 8,2 6,5 7,4 5,2 24 13 29 16 SSW 1001,2 4,9 0 0,0
07.12.2018 13:00:00 8,4 8,2 8,7 7,9 6,4 7,4 5,2 21 12 29 15 SW 1002,1 9 0 0,0
07.12.2018 12:00:00 8,0 7,8 8,2 7,5 6,2 7,4 5,0 24 13 26 14 SW 1003,0 2,8 0 0,0
07.12.2018 11:00:00 7,6 7,5 7,8 7,2 6,1 7,4 5,0 24 13 27 15 SW 1003,9 6 0 0,0
07.12.2018 10:00:00 7,6 7,6 7,7 7,0 6,0 7,4 4,9 23 12 27 15 SW 1004,4 3,7 0 0,1
07.12.2018 09:00:00 7,8 7,7 7,8 6,8 5,9 7,5 4,9 23 13 31 17 WSW 1004,9 0,5 0 0,1
07.12.2018 08:00:00 7,7 7,6 7,7 6,8 5,8 7,5 4,9 27 15 36 20 WSW 1004,9 0,6 0 0,1
07.12.2018 07:00:00 7,4 7,2 7,4 6,7 5,7 7,5 4,9 27 14 38 20 WSW 1004,9 0,3 0 0,1
07.12.2018 06:00:00 7,9 7,5 7,7 6,7 5,5 7,5 4,9 33 18 40 22 WSW 1005,1 3,5 0 0,0
07.12.2018 05:00:00 8,2 7,8 8,0 6,7 5,4 7,5 4,8 37 20 41 22 SW 1004,9 9 0 0,0
07.12.2018 04:00:00 7,9 7,6 7,8 6,5 5,2 7,5 4,8 31 17 36 20 SSW 1005,7 2,7 0 0,4
07.12.2018 03:00:00 7,9 7,6 7,7 6,2 5,0 7,5 4,7 29 16 35 19 SW 1006,8 2,5 0 0,2
07.12.2018 02:00:00 7,5 7,2 7,4 6,0 4,8 7,5 4,5 28 15 35 19 SSW 1007,3 2,7 0 1,4
07.12.2018 01:00:00 7,3 7,0 7,1 5,6 4,7 7,5 4,5 24 13 31 17 SSW 1008,4 3,0 0 0,0
07.12.2018 00:00:00 6,9 6,6 6,8 5,3 4,5 7,5 4,4 29 15 33 18 SSW 1008,8 2,7 0 0,0
06.12.2018 23:00:00 6,4 6,0 6,2 5,0 4,3 7,5 4,3 25 14 33 18 SSW 1009,4 3,2 0 0,0
06.12.2018 22:00:00 6,1 5,6 5,9 4,6 4,2 7,5 4,2 28 15 33 18 SSW 1010,0 4,5 0 0,0
06.12.2018 21:00:00 5,8 5,3 5,6 4,3 4,1 7,5 4,2 26 14 31 17 SSW 1010,6 8 0 0,0
06.12.2018 20:00:00 4,9 4,5 4,7 3,9 4,0 7,5 4,1 27 14 31 17 SSW 1011,1 4,3 0 0,1
06.12.2018 19:00:00 4,3 3,7 4,1 3,6 3,9 7,5 3,9 26 14 33 18 SSW 1011,8 1,9 0 0,1
06.12.2018 18:00:00 4,4 2,7 3,8 3,4 3,9 7,6 3,8 27 15 35 19 SSW 1012,2 7 0 0,0
06.12.2018 17:00:00 4,2 1,7 3,7 3,2 3,8 7,6 3,7 23 13 33 18 SSW 1012,3 12 0 0,0
06.12.2018 16:00:00 4,0 1,3 3,8 3,1 3,8 7,6 3,7 25 13 34 18 SSW 1012,9 25 0 0,0
06.12.2018 15:00:00 3,6 0,8 3,5 3,1 3,7 7,6 3,6 22 12 36 19 S 1012,8 27 0 0,0
06.12.2018 14:00:00 3,4 0,6 3,4 3,2 3,7 7,6 3,6 19 10 35 19 S 1013,4 28 0 0,0
06.12.2018 13:00:00 3,6 0,6 3,6 3,1 3,6 7,6 3,5 22 12 37 20 S 1014,0 29 0 0,0
06.12.2018 12:00:00 3,2 0,6 2,7 2,9 3,5 7,6 3,5 24 13 41 22 S 1015,1 25 0 0,0
06.12.2018 11:00:00 3,1 0,3 2,5 2,8 3,5 7,6 3,4 23 12 38 21 S 1015,9 16 0 0,0
06.12.2018 10:00:00 3,3 -0,1 2,4 2,5 3,4 7,6 3,5 19 10 39 21 SSE 1016,5 26 0 0,0
06.12.2018 09:00:00 3,3 -0,4 2,2 2,3 3,4 7,6 3,7 23 12 40 22 SSE 1016,2 23 0 0,5
06.12.2018 08:00:00 3,5 -0,2 2,2 2,3 3,4 7,6 3,5 22 12 41 22 SSE 1016,6 13 0 0,1
06.12.2018 07:00:00 3,8 -1,0 3,4 2,2 3,4 7,6 3,4 26 14 45 24 SSE 1016,5 40 0 0,0
06.12.2018 06:00:00 3,7 -0,5 3,2 2,1 3,4 7,6 3,5 27 15 43 23 S 1017,1 42 0 0,0
06.12.2018 05:00:00 3,4 -0,6 2,9 2,1 3,4 7,6 3,5 23 12 44 24 SSE 1017,8 35 0 0,0
06.12.2018 04:00:00 3,3 -0,2 2,7 2,0 3,4 7,6 3,5 26 14 46 25 S 1018,4 28 0 0,0
06.12.2018 03:00:00 3,1 0,1 2,5 1,9 3,4 7,6 3,5 26 14 41 22 S 1019,1 28 0 0,0
06.12.2018 02:00:00 3,0 0,5 2,2 1,8 3,5 7,7 3,6 22 12 38 21 SSE 1020,0 26 0 0,0
06.12.2018 01:00:00 3,3 0,7 2,1 1,8 3,5 7,7 3,7 23 12 40 22 S 1020,9 30 0 0,0
06.12.2018 00:00:00 3,0 0,4 2,1 1,7 3,6 7,7 3,7 22 12 34 18 S 1021,9 30 0 0,0
05.12.2018 23:00:00 3,3 0,9 2,0 1,7 3,7 7,7 3,6 21 12 34 18 S 1022,7 30 0 0,0
05.12.2018 22:00:00 3,0 1,0 1,6 1,6 3,8 7,7 3,6 18 10 32 17 S 1023,4 30 0 0,0
05.12.2018 21:00:00 3,2 1,0 1,7 1,8 3,9 7,7 3,7 18 10 31 17 S 1023,6 33 0 0,0
05.12.2018 20:00:00 3,4 1,3 1,8 1,9 4,1 7,7 3,9 18 10 26 14 S 1024,1 37 0 0,0
05.12.2018 19:00:00 3,8 1,4 2,4 2,1 4,2 7,7 4,4 20 11 27 14 SSW 1024,5 36 0 0,0
05.12.2018 18:00:00 3,8 1,5 2,2 2,4 4,4 7,7 4,2 17 9 22 12 SSW 1024,9 39 0 0,0
05.12.2018 17:00:00 4,2 1,7 2,4 2,8 4,5 7,7 4,2 16 9 22 12 SSW 1024,9 44 0 0,0
05.12.2018 16:00:00 4,4 2,2 2,7 3,5 4,6 7,7 4,4 14 8 19 11 SW 1025,3 44 18 0,0
05.12.2018 15:00:00 5,1 2,2 4,0 4,3 4,5 7,7 4,2 18 10 23 13 WSW 1025,4 39 60 0,0
05.12.2018 14:00:00 4,9 2,1 5,1 4,9 4,3 7,7 4,3 17 9 31 17 WSW 1025,6 17 60 0,0
05.12.2018 13:00:00 4,6 1,7 5,2 4,4 4,1 7,7 4,2 29 16 43 23 WSW 1025,7 9 60 0,0
05.12.2018 12:00:00 4,0 1,5 4,3 3,6 4,0 7,7 4,0 33 18 42 23 WSW 1025,8 15 56 0,0
05.12.2018 11:00:00 3,8 1,4 3,9 3,0 4,0 7,7 3,9 32 17 39 21 W 1025,8 10 60 0,0
05.12.2018 10:00:00 3,4 1,7 2,9 2,5 4,0 7,7 3,9 28 15 37 20 W 1025,6 18 60 0,0
05.12.2018 09:00:00 3,5 1,8 2,7 2,4 4,1 7,7 3,8 28 15 44 24 W 1025,3 44 24 0,0
05.12.2018 08:00:00 3,3 1,9 2,5 2,4 4,2 7,7 3,9 33 18 41 22 W 1024,7 41 0 0,0
05.12.2018 07:00:00 3,6 2,3 2,8 2,5 4,3 7,7 4,0 31 17 41 22 W 1024,1 34 0 0,0
05.12.2018 06:00:00 3,6 2,3 2,8 2,6 4,3 7,7 4,2 33 18 41 22 W 1023,5 32 0 0,0
05.12.2018 05:00:00 3,6 2,1 2,8 2,7 4,4 7,7 4,1 37 20 46 25 W 1023,2 34 0 0,0
05.12.2018 04:00:00 3,8 2,2 3,0 2,8 4,5 7,7 4,4 32 18 40 22 W 1022,7 33 0 0,0
05.12.2018 03:00:00 3,9 1,9 3,0 2,9 4,6 7,7 4,6 35 19 45 24 WSW 1022,1 32 0 0,0
05.12.2018 02:00:00 4,8 1,1 4,0 3,1 4,7 7,7 4,6 38 20 46 25 W 1021,5 39 0 0,0
05.12.2018 01:00:00 4,8 1,2 4,0 3,1 4,8 7,6 4,7 36 19 50 27 W 1021,0 38 0 0,0
05.12.2018 00:00:00 4,5 0,9 3,9 3,2 4,9 7,6 4,7 36 19 53 28 WNW 1020,4 39 0 0,0
04.12.2018 23:00:00 5,0 1,1 4,4 3,4 5,0 7,6 4,8 40 22 49 26 WNW 1019,5 40 0 0,0
04.12.2018 22:00:00 4,9 1,5 4,3 3,4 5,1 7,6 4,9 40 21 49 26 W 1018,7 43 0 0,0
04.12.2018 21:00:00 4,9 1,2 4,2 3,5 5,2 7,6 5,0 39 21 51 27 W 1017,6 44 0 0,0
04.12.2018 20:00:00 5,2 1,4 4,5 3,6 5,3 7,6 5,1 48 26 57 31 W 1016,7 48 0 0,0
04.12.2018 19:00:00 5,1 1,5 4,5 3,7 5,4 7,6 5,3 45 24 61 33 W 1015,9 41 0 0,0
04.12.2018 18:00:00 5,3 1,1 4,6 3,8 5,6 7,6 5,1 44 24 54 29 W 1015,0 40 0 0,0
04.12.2018 17:00:00 5,4 1,1 4,7 4,0 5,7 7,6 5,2 44 24 55 30 W 1014,2 46 0 0,0

tt = Température de l'air
td = dewpoint
tt 5cm = Température de l'air 5cm
tt -5cm = Température de l'air -5cm
tt -20cm = Température de l'air -20cm
tt -100cm = Température de l'air -100cm
tw = water temperature
ff = Vitesse du vent
fx = gusts
dd = Direction du vent
ppp = reduced air pressure
vv = visibility
sd = Ensoleillement
rr = Quantités de précipitations

stations d'obs. à proximité